This demonstration page uses our WeatherBlox Daily Observations layout. Learn more.

38.89511, -77.03637

Hourly Observations for December 6, 2016

Temp ( °F °C ) Dew Point ( °F °C ) Humidity (%) Winds ( mph kmh ) Pressure ( in mb ) Visibility ( mi km ) Precip ( " mm )
12:52 am 00:52 Cloudy 45 7.2 32 0 61 61 NE 7 11 30.13 1020 10 16.0934 0 0
1:52 am 01:52 Cloudy 45 7.2 33 0.6 63 63 NNE 9 15 30.12 1020 10 16.0934 0 0
2:52 am 02:52 Cloudy 44 6.7 33 0.6 65 65 NNE 7 11 30.14 1021 10 16.0934 0 0
3:52 am 03:52 Cloudy 44 6.7 33 0.6 65 65 NE 9 15 30.11 1020 10 16.0934 0 0
4:52 am 04:52 Cloudy 43 6.1 33 0.6 68 68 NE 5 7 30.12 1020 10 16.0934 0 0
5:52 am 05:52 Cloudy 44 6.7 32 0 63 63 E 6 9 30.12 1020 10 16.0934 0 0
6:52 am 06:52 Cloudy 44 6.7 33 0.6 65 65 ENE 6 9 30.09 1019 10 16.0934 0 0
7:52 am 07:52 Cloudy 44 6.7 33 0.6 65 65 ENE 5 7 30.11 1020 10 16.0934 0 0
8:52 am 08:52 Cloudy with Light Rain 44 6.7 33 0.6 65 65 ENE 7 11 30.1 1019 10 16.0934 0 0.0254
9:52 am 09:52 Cloudy with Light Rain 44 6.7 35 1.7 71 71 ENE 7 11 30.1 1019 10 16.0934 0.01 0.254
10:52 am 10:52 Cloudy with Light Rain 43 6.1 37 2.8 80 80 NE 10 17 30.05 1018 10 16.0934 0.02 0.508
11:52 am 11:52 Cloudy with Light Rain 43 6.1 38 3.3 82 82 ENE 8 13 30.01 1016 7 11.26538 0.03 0.762
12:52 pm 12:52 Cloudy with Light Rain 42 5.6 38 3.3 85 85 ENE 7 11 29.96 1014 7 11.26538 0.04 1.016
1:29 pm 13:29 Cloudy with Rain 42 5.6 40 4.4 92 92 NE 14 22 29.88 1012 4 6.43736 0.05 1.27
1:47 pm 13:47 Cloudy with Rain 43 6 39 4 87 87 NE 14 22 29.88 1012 2.5 4.02335 0 0
1:52 pm 13:52 Cloudy with Rain 42 5.6 40 4.4 92 92 NE 15 24 29.87 1011 2.5 4.02335 0.11 2.794
2:12 pm 14:12 Cloudy with Light Rain 43 6 39 4 87 87 NE 12 19 29.88 1012 3 4.82802 0 0
2:16 pm 14:16 Cloudy with Light Rain 43 6 39 4 87 87 NE 12 19 29.88 1012 2 3.21868 0 0
2:18 pm 14:18 Cloudy with Light Rain 43 6 39 4 87 87 NNE 10 17 29.88 1012 2 3.21868 0 0
2:20 pm 14:20 Cloudy with Light Rain 43 6 39 4 87 87 NNE 9 15 29.88 1012 2 3.21868 0 0
2:33 pm 14:33 Cloudy with Rain 42 5.6 40 4.4 92 92 NNE 10 17 29.88 1012 1.5 2.41401 0.09 2.286
2:52 pm 14:52 Cloudy with Heavy Rain 42 5.6 41 5 96 96 N 10 17 29.88 1012 2 3.21868 0.18 4.572
3:18 pm 15:18 Cloudy with Rain 42 5.6 41 5 96 96 NNE 13 20 29.85 1011 2 3.21868 0.11 2.794
3:52 pm 15:52 Cloudy with Rain 42 5.6 41 5 96 96 NE 17 28 29.82 1010 2.5 4.02335 0.23 5.842
3:59 pm 15:59 Cloudy with Rain 42 5.6 41 5 96 96 NNE 13 20 29.83 1010 3 4.82802 0.02 0.508
4:01 pm 16:01 Cloudy with Rain 42 5.6 41 5 96 96 NNE 14 22 29.83 1010 2.5 4.02335 0.03 0.762
4:10 pm 16:10 Cloudy with Heavy Rain 43 6 41 5 93 93 NE 14 22 29.83 1010 2.5 4.02335 0 0
4:17 pm 16:17 Cloudy with Heavy Rain 42 5.6 41 5 96 96 NNE 14 22 29.83 1010 3 4.82802 0.09 2.286
4:52 pm 16:52 Cloudy with Light Rain 43 6.1 41 5 93 93 NNE 14 22 29.83 1010 5 8.0467 0.18 4.572
5:11 pm 17:11 Cloudy with Heavy Rain 43 6.1 41 5 93 93 NNE 12 19 29.83 1010 4 6.43736 0.03 0.762
5:21 pm 17:21 Cloudy with Rain 43 6.1 41 5 93 93 NE 12 19 29.83 1010 4 6.43736 0.06 1.524
5:24 pm 17:24 Cloudy with Rain 43 6 43 6 100 100 NE 12 19 29.83 1010 5 8.0467 0 0
5:28 pm 17:28 Cloudy with Light Rain 43 6 43 6 100 100 NNE 9 15 29.83 1010 5 8.0467 0 0
5:52 pm 17:52 Cloudy with Light Rain 43 6.1 42 5.6 97 97 NNE 13 20 29.83 1010 9 14.48406 0.1 2.54
6:06 pm 18:06 Cloudy with Light Rain 43 6 43 6 100 100 NNE 14 22 29.83 1010 7 11.26538 0 0
6:43 pm 18:43 Cloudy with Light Rain 44 6.7 42 5.6 93 93 N 14 22 29.83 1010 10 16.0934 0.05 1.27
6:48 pm 18:48 Cloudy with Light Rain 45 7 43 6 93 93 N 13 20 29.83 1010 10 16.0934 0 0
6:52 pm 18:52 Cloudy with Light Rain 44 6.7 43 6.1 96 96 N 14 22 29.84 1011 10 16.0934 0.05 1.27
7:19 pm 19:19 Cloudy with Light Rain 45 7.2 43 6.1 93 93 N 15 24 29.83 1010 6 9.65604 0.02 0.508
7:52 pm 19:52 Cloudy with Light Rain 45 7.2 43 6.1 93 93 N 15 24 29.81 1009 8 12.87472 0.03 0.762
8:04 pm 20:04 Cloudy with Light Rain 45 7 43 6 93 93 NNE 17 28 29.8 1009 5 8.0467 0 0
8:12 pm 20:12 Cloudy with Light Rain 45 7 43 6 93 93 N 15 24 29.8 1009 6 9.65604 0 0
8:16 pm 20:16 Cloudy with Light Rain 45 7.2 43 6.1 93 93 NNE 15 24 29.8 1009 6 9.65604 0.01 0.254
8:52 pm 20:52 Cloudy with Light Rain 45 7.2 43 6.1 93 93 N 13 20 29.79 1009 4 6.43736 0.03 0.762
8:56 pm 20:56 Cloudy with Light Rain 45 7 45 7 100 100 N 15 24 29.8 1009 4 6.43736 0 0
9:52 pm 21:52 Cloudy 46 7.8 44 6.7 93 93 N 13 20 29.8 1009 10 16.0934 0.02 0.508
10:06 pm 22:06 Cloudy 46 8 45 7 93 93 N 10 17 29.8 1009 10 16.0934 0 0
10:52 pm 22:52 Cloudy 46 7.8 44 6.7 93 93 N 10 17 29.81 1009 10 16.0934 0 0
11:52 pm 23:52 Cloudy 46 7.8 44 6.7 93 93 NNW 10 17 29.84 1010 10 16.0934 0 0

Powered by AerisWeather